Location: ????????
(55.3939°N, 37.4780°E)
Time: 21:37:27
(UTC+00:00)

H-2A R/B - Pass Details

Date: 14 April 2026
Orbit: 478 x 548 km, 98.3° (Epoch: 16 May)

Event Time Altitude Azimuth Distance (km) Brightness Sun altitude
Exits shadow 23:12:35 10° 121° (ESE) 1,707 4.8 -21.5°
Maximum altitude 23:15:43 28° 62° (ENE) 976 4.1 -21.3°
Drops below altitude 10° 23:18:50 10° 3° (N) 1,696 5.7 -21.1°
Sets 23:21:05 0° 352° (N) 2,574 6.6 -20.9°
